FALCON 9 DEB (47609 NORAD) Tracking and Keplerian Element Data

This shows tracking and keplerian element data for the satellite.

Feedback or suggestion? Click here.




ElementValue
Catalog47609
NameFALCON 9 DEB
Epoch Orbit352
Epoch Day57.16196423
Epoch Year2021
RAAN12.5777
Inclination53.0496
Eccentricity0.001581
Argument of Perigee306.3282
Mean Anonmoly53.6294
Mean Motion16.15363548
Decay Rate0.00774553
L11 47609U 21009BP 21057.16196423 .00774553 37565-3 54467-3 0 9994
L22 47609 53.0496 12.5777 0015810 306.3282 53.6294 16.15363548 3524

Live tracking and technical data element details for FALCON 9 DEB (NORAD 47609). FALCON 9 DEB can be tracked NOW for your location showing map with azimuth and elevation plus other details from your city location.

Track the satellite on the map from your city or location and see movement details for azimuth, elevation, latitude, longitude, range, height, and movement on the map or in text.







IsCatalogInMostPopularTable: catalog: 47609, numindb: 1
Update: records affected: 1



GetName: 47609 FALCON 9 DEB

Hit Count: updated at: Fri, 26 Feb 2021 09:41:31 GMT